Location: Buckland
(65.9785°N, 161.1281°W)
Time: 13:43:56
(UTC+00:00)

PRISM - Pass Details

Date: 25 January 2021
Orbit: 565 x 584 km, 98.2° (Epoch: 04 March)

Event Time Altitude Azimuth Distance (km) Brightness Sun altitude
Rises 16:31:36 0° 25° (NNE) 2,789 ? -19.7°
Reaches altitude 10° 16:34:12 10° 8° (N) 1,890 ? -19.4°
Enters shadow 16:36:11 18° 341° (NNW) 1,447 ? -19.2°
